Meteo Giornale » Osservazioni meteo Spagna » Tenerife Sur
ore: 01:30 - Osservazioni Meteo Tenerife Sur
Lat. 28° 3' N Lon. 16° 34' W Alt. 64 metri s.l.m.
24 °C
Poco Nuvoloso
Temp. 24 Ore
21 °C
30 °C
Est/Nord-Est
9.3 Km/h
Dew point 20 °C
Umidità 78 %
Visibilità 10 Km
Il sole sorge alle ore 07:44
Il sole tramonta alle ore 20:27
| Data e Ora | Cielo e Fenomeni | T °C | DP °C | Um. % | Pres. hPa | Vis. km | Vento km/h | |
|---|---|---|---|---|---|---|---|---|
| Oggi h: 01:30 | Poco Nuvoloso | 24 | 20 | 78 | 1019 | 10 | E/NE 9.3 | |
| Oggi h: 01:00 | Poco Nuvoloso | 25 | 20 | 73 | 1019 | 10 | E/NE 18.5 | |
| Oggi h: 00:30 | Poco Nuvoloso | 24 | 20 | 78 | 1019 | 10 | E/NE 9.3 | |
| Oggi h: 00:00 | Poco Nuvoloso | 25 | 20 | 73 | 1019 | 10 | NE 14.8 | |
| Ieri h: 23:30 | Poco Nuvoloso | 24 | 21 | 83 | 1019 | 10 | E/NE 9.3 | |
| Ieri h: 23:00 | Poco Nuvoloso | 25 | 21 | 78 | 1019 | 10 | E/NE 11.1 | |
| Ieri h: 22:30 | Poco Nuvoloso | 25 | 21 | 78 | 1019 | 10 | E/NE 18.5 | |
| Ieri h: 22:00 | Poco Nuvoloso | 25 | 21 | 78 | 1018 | 10 | E/NE 14.8 | |
| Ieri h: 21:30 | Poco Nuvoloso | 25 | 21 | 78 | 1018 | 10 | E/NE 18.5 | |
| Ieri h: 21:00 | Poco Nuvoloso | 25 | 21 | 78 | 1018 | 10 | E/NE 20.3 | |
| Ieri h: 20:30 | Poco Nuvoloso | 26 | 22 | 78 | 1017 | 10 | E/NE 22.2 | |
| Ieri h: 20:00 | Poco Nuvoloso | 26 | 22 | 78 | 1017 | 10 | E/NE 25.9 | |
| Ieri h: 19:30 | Poco Nuvoloso | 27 | 21 | 69 | 1017 | 10 | E 33.3 | |
| Ieri h: 19:00 | Poco Nuvoloso | 27 | 22 | 74 | 1017 | 10 | E/NE 33.3 | |
| Ieri h: 18:30 | Poco Nuvoloso | 28 | 22 | 69 | 1017 | 10 | E 37 | |
| Ieri h: 18:00 | Poco Nuvoloso | 28 | 22 | 69 | 1017 | 10 | E 35.2 | |
| Ieri h: 17:30 | Poco Nuvoloso | 28 | 21 | 65 | 1017 | 10 | E 37 | |
| Ieri h: 17:00 | Poco Nuvoloso | 29 | 22 | 66 | 1017 | 10 | E/NE 25.9 | |
| Ieri h: 16:30 | Poco Nuvoloso | 29 | 22 | 66 | 1017 | 10 | E 37 | |
| Ieri h: 16:00 | Poco Nuvoloso | 29 | 22 | 66 | 1017 | 10 | E 38.8 | |
| Ieri h: 15:30 | Poco Nuvoloso | 30 | 22 | 62 | 1017 | 10 | E 37 | |
| Ieri h: 15:00 | Poco Nuvoloso | 30 | 21 | 58 | 1017 | 10 | E 38.8 | |
| Ieri h: 14:30 | Poco Nuvoloso | 29 | 21 | 62 | 1018 | 10 | E 44.4 | |
| Ieri h: 14:00 | Poco Nuvoloso | 29 | 21 | 62 | 1018 | 10 | E 40.7 | |
| Ieri h: 13:30 | Poco Nuvoloso | 29 | 21 | 62 | 1018 | 10 | E 40.7 | |
| Ieri h: 13:00 | Poco Nuvoloso | 29 | 21 | 62 | 1018 | 10 | E 40.7 | |
| Ieri h: 12:30 | Poco Nuvoloso | 28 | 21 | 65 | 1019 | 10 | E 40.7 | |
| Ieri h: 12:00 | Poco Nuvoloso | 28 | 22 | 69 | 1019 | 10 | E 33.3 | |
| Ieri h: 11:30 | Poco Nuvoloso | 28 | 20 | 61 | 1019 | 10 | E 33.3 | |
| Ieri h: 11:00 | Poco Nuvoloso | 27 | 20 | 65 | 1018 | 10 | E 24 | |
| Ieri h: 10:30 | Poco Nuvoloso | 27 | 20 | 65 | 1018 | 10 | E/NE 24 | |
| Ieri h: 10:00 | Poco Nuvoloso | 26 | 20 | 69 | 1018 | 10 | E/NE 20.3 | |
| Ieri h: 09:30 | Poco Nuvoloso | 25 | 19 | 69 | 1018 | 10 | NE 13 | |
| Ieri h: 09:00 | Poco Nuvoloso | 24 | 18 | 69 | 1018 | 10 | NE 13 | |
| Ieri h: 08:30 | Poco Nuvoloso | 23 | 19 | 78 | 1018 | 10 | N/NE 13 | |
| Ieri h: 08:00 | Poco Nuvoloso | 23 | 18 | 73 | 1017 | 10 | N 3.7 | |
| Ieri h: 07:30 | Poco Nuvoloso | 21 | 18 | 82 | 1017 | 10 | N/NE 11.1 | |
| Ieri h: 07:00 | Poco Nuvoloso | 23 | 19 | 78 | 1017 | 10 | E/NE 9.3 | |
| Ieri h: 06:30 | Poco Nuvoloso | 22 | 18 | 78 | 1017 | 10 | E/NE 11.1 | |
| Ieri h: 06:00 | Poco Nuvoloso | 23 | 19 | 78 | 1017 | 10 | N 5.5 | |
| Ieri h: 05:30 | Poco Nuvoloso | 23 | 19 | 78 | 1017 | 10 | NE 14.8 | |
| Ieri h: 04:30 | Poco Nuvoloso | 23 | 18 | 73 | 1018 | 10 | N/NE 11.1 | |
| Ieri h: 04:00 | Poco Nuvoloso | 23 | 19 | 78 | 1018 | 10 | NE 16.7 | |
| Ieri h: 03:30 | Poco Nuvoloso | 23 | 19 | 78 | 1018 | 10 | N/NE 11.1 | |
| Ieri h: 03:00 | Poco Nuvoloso | 23 | 19 | 78 | 1018 | 10 | N/NE 11.1 | |



